Temp
62 62 61 61 61 61 61 61 60 59 59 59 60 60 61 61 61 60 59 59 58 58 58 59 59 59 63 59 62 70 69 69 71 71 66 64 61 59 56 56 58 58 58 61 62 61 62
61 61 60 60 60 60 60 60 59 58 58 58 59 59 59 60 60 60 59 59 58 58 58 58 59 59 61 52 70 69 70 70 70 69 66 66 62 62 57 56 56 57 57 59 61 62 62
61 60 60 59 59 59 59 58 58 58 58 58 58 59 59 59 59 59 59 58 58 57 58 58 59 58 54 57 67 67 68 68 70 70 65 66 66 62 59 56 58 57 54 58 59 59 59
60 60 60 59 59 58 58 58 58 58 58 57 58 57 58 59 58 58 58 57 57 57 58 58 58 56 51 67 67 66 68 68 70 70 69 68 67 62 59 59 56 54 53 51 57 58 58
60 60 59 59 58 57 57 57 57 58 58 57 57 57 56 56 57 57 57 57 57 57 57 58 56 54 51 67 63 68 68 66 68 68 68 68 64 55 56 52 51 49 50 47 53 59 57
59 59 59 58 57 57 57 57 57 57 58 57 57 57 56 56 57 56 56 56 56 56 58 58 57 50 57 57 64 66 66 67 65 63 61 59 54 52 48 50 45 46 47 47 48 55 56
59 59 58 57 57 57 57 57 57 56 57 58 57 57 56 56 56 55 55 55 51 50 51 50 51 50 54 61 65 64 67 65 63 60 52 52 50 48 52 49 50 49 46 46 51 55 53
58 58 58 58 57 58 58 58 56 56 57 57 57 57 56 56 55 55 53 50 50 51 43 51 51 51 56 60 52 59 66 58 55 50 51 49 45 52 52 50 48 47 46 46 50 53 51
57 57 57 58 58 57 58 57 57 56 56 57 57 57 56 55 54 51 49 50 53 54 41 46 50 50 53 57 51 54 61 56 52 47 47 46 50 52 50 47 46 46 43 43 46 52 50
57 56 57 57 58 57 57 57 57 56 56 56 57 56 54 55 49 47 47 52 52 53 34 42 46 52 55 55 50 59 62 59 52 48 48 47 52 49 48 46 48 41 49 49 47 45 40
56 56 56 57 57 56 56 56 56 55 55 56 55 55 53 54 47 45 50 50 51 49 27 46 47 61 56 52 54 55 61 57 49 49 50 46 48 47 44 47 49 45 51 48 47 44 43
56 56 56 56 56 56 55 55 55 54 55 55 55 54 53 49 47 49 49 51 50 33 25 43 50 48 47 51 52 55 55 59 56 50 49 47 53 52 51 52 52 52 50 46 43 42 34
56 56 56 56 55 55 55 55 54 54 54 54 55 54 52 51 45 50 49 47 32 26 44 40 44 47 46 46 48 50 47 46 44 38 38 45 47 53 53 47 52 49 44 33 31 31 32
56 56 55 55 55 55 55 54 54 53 53 53 53 53 52 50 49 50 48 38 24 36 36 46 46 46 43 46 46 46 44 42 46 45 40 37 35 46 50 48 46 44 44 34 25 29 34
56 56 55 55 55 55 54 54 53 53 53 53 53 48 47 48 50 48 41 27 32 36 41 41 44 40 39 44 44 44 42 42 46 46 39 36 36 49 50 52 52 44 40 49 37 39 29
56 55 55 54 54 54 54 53 53 53 53 53 45 45 45 48 50 44 35 31 34 41 43 43 37 40 35 38 40 40 41 45 44 47 50 43 35 46 50 53 52 49 51 37 35 25 24
55 55 55 54 54 54 53 53 53 53 52 53 45 39 44 49 48 41 30 32 36 43 44 40 37 36 37 38 38 38 40 45 47 46 48 46 40 41 47 44 43 44 41 41 41 35 27
54 54 54 54 54 53 53 53 52 52 52 50 41 31 44 48 35 35 33 35 41 40 44 41 41 39 37 39 37 36 37 43 49 48 43 47 39 33 40 50 52 49 44 43 32 31 33
54 54 54 54 53 53 53 53 52 52 52 44 37 34 45 45 28 29 34 36 40 38 38 37 36 39 40 34 30 33 39 47 48 47 44 45 36 33 36 41 46 43 43 45 42 35 32
53 53 53 53 53 53 53 52 52 52 52 44 37 30 37 40 39 35 33 32 33 42 39 40 38 39 37 32 36 31 37 44 46 48 48 47 41 36 30 36 41 37 40 42 41 31 32
53 53 53 53 53 53 52 52 52 52 52 44 38 32 36 29 32 34 35 34 32 32 40 40 35 35 35 27 32 33 39 41 45 48 47 44 34 35 38 40 40 37 38 38 36 37 32
52 52 52 52 52 52 52 52 52 52 52 43 34 34 37 33 37 34 34 33 33 34 35 34 34 37 36 32 34 33 37 38 38 43 42 41 35 32 27 37 37 32 34 32 35 36 36
52 51 52 52 52 52 52 52 52 52 50 41 42 42 38 34 33 32 32 34 35 38 39 41 39 37 35 38 43 43 44 43 42 38 37 37 35 31 30 33 34 28 33 34 37 39 39
51 52 52 52 52 52 52 52 51 52 50 43 42 42 35 29 33 34 36 37 35 37 35 41 42 38 42 49 46 42 41 42 41 38 42 37 35 33 30 31 23 36 40 41 38 40 42
50 50 51 51 51 51 51 51 51 51 51 43 44 41 36 30 35 36 37 37 39 40 38 39 43 46 48 39 33 31 31 32 37 41 41 42 36 31 29 30 34 39 38 37 35 39 42
50 50 50 51 50 50 50 50 50 50 51 46 44 46 41 34 33 40 35 36 33 35 36 39 46 49 44 35 33 28 26 32 30 35 43 41 41 34 32 26 24 37 41 44 44 34 38
49 50 50 50 50 50 50 50 50 50 51 47 44 46 42 34 38 40 35 35 41 37 34 38 40 38 41 32 30 30 30 38 30 31 32 32 33 30 31 28 34 43 43 45 32 36 38
48 48 49 49 50 50 50 50 50 50 50 47 43 46 42 35 38 42 43 39 40 38 33 37 36 36 34 31 32 32 32 36 35 38 35 34 31 30 31 28 26 42 41 38 41 39 39
48 48 48 49 49 49 49 50 50 50 50 49 41 46 46 38 37 44 46 48 46 46 40 39 37 37 38 35 35 37 33 35 36 30 43 33 39 35 37 37 38 40 41 42 43 41 38
MSLP
1020.10 1020.24 1020.60 1020.70 1021.14 1021.12 1021.26 1021.01 1020.98 1021.15 1021.18 1021.25 1021.31 1021.23 1021.44 1021.52 1021.50 1021.55 1021.46 1021.40 1021.30 1021.36 1021.23 1020.91 1020.43 1019.49 1018.81 1018.59 1017.07 1016.22 1016.07 1015.89 1015.65 1015.67 1015.96 1015.82 1015.90 1016.08 1016.24 1016.31 1016.19 1015.96 1015.68 1015.33 1015.19 1015.25 1015.40
1019.81 1020.38 1020.52 1020.75 1020.74 1021.06 1021.21 1021.23 1021.12 1020.88 1021.19 1021.16 1021.11 1021.16 1021.28 1021.32 1021.25 1021.34 1021.36 1021.38 1021.36 1021.23 1021.15 1021.25 1020.82 1020.03 1019.39 1018.73 1016.71 1016.50 1016.25 1015.95 1015.92 1015.82 1016.00 1016.02 1016.24 1016.33 1016.39 1016.48 1016.51 1016.25 1016.06 1015.65 1015.39 1015.32 1015.51
1019.83 1019.91 1020.36 1020.79 1021.08 1021.11 1021.06 1021.19 1021.31 1021.34 1021.06 1021.29 1021.09 1020.90 1021.10 1021.26 1021.22 1021.24 1021.24 1021.23 1021.33 1021.08 1020.94 1021.05 1020.89 1020.58 1019.77 1017.79 1016.67 1016.68 1016.46 1016.44 1016.16 1016.01 1016.12 1016.18 1016.37 1016.49 1016.68 1016.61 1016.69 1016.46 1016.23 1015.70 1015.38 1015.48 1015.55
1019.42 1020.01 1020.05 1020.64 1020.91 1021.13 1021.05 1020.91 1021.03 1021.30 1021.19 1021.22 1021.02 1021.18 1021.11 1021.01 1021.03 1021.20 1020.93 1021.26 1021.44 1021.13 1020.90 1020.98 1020.86 1020.84 1018.92 1016.49 1016.60 1016.49 1016.47 1016.20 1016.20 1016.11 1016.11 1016.25 1016.44 1016.74 1016.94 1017.10 1016.93 1016.54 1016.44 1015.91 1015.63 1015.68 1015.84
1019.61 1019.57 1020.05 1020.55 1020.96 1021.14 1021.38 1020.96 1021.07 1020.92 1021.33 1020.99 1021.10 1021.21 1021.10 1020.99 1021.05 1021.08 1021.02 1020.80 1021.05 1021.23 1020.78 1020.86 1020.89 1020.90 1018.14 1016.34 1016.35 1015.91 1016.10 1016.02 1016.05 1016.23 1016.37 1016.37 1016.69 1017.46 1017.43 1017.29 1017.23 1017.20 1016.41 1016.00 1015.62 1015.59 1015.98
1019.61 1019.79 1020.07 1020.53 1020.58 1021.08 1021.22 1021.29 1021.11 1020.94 1020.67 1021.14 1021.03 1020.88 1021.29 1021.00 1020.70 1020.59 1021.05 1020.83 1020.92 1021.02 1020.95 1020.59 1020.90 1021.00 1018.04 1017.00 1016.54 1016.14 1016.09 1016.04 1016.15 1016.56 1016.96 1016.99 1017.44 1017.59 1017.74 1017.48 1017.07 1016.95 1016.87 1016.55 1016.17 1015.90 1015.87
1019.45 1020.06 1020.13 1020.52 1020.60 1020.81 1021.16 1021.32 1021.01 1021.19 1020.64 1021.11 1020.81 1021.07 1020.99 1020.95 1020.95 1020.96 1021.05 1020.72 1021.21 1021.36 1020.98 1020.20 1019.83 1019.27 1018.15 1017.37 1016.74 1016.39 1016.44 1016.23 1016.28 1016.73 1017.36 1017.78 1017.62 1017.34 1017.03 1017.18 1017.10 1017.01 1016.89 1016.64 1016.19 1016.00 1016.34
1018.72 1019.62 1020.07 1020.07 1020.70 1020.52 1020.81 1021.17 1020.90 1021.16 1020.79 1020.84 1020.84 1021.06 1021.17 1020.82 1021.02 1021.11 1021.22 1021.27 1021.28 1021.71 1020.94 1019.68 1019.35 1018.91 1018.35 1018.22 1017.71 1016.55 1016.43 1016.70 1016.52 1016.89 1017.44 1018.10 1017.64 1017.05 1017.31 1017.44 1017.28 1017.13 1016.97 1016.61 1016.27 1015.87 1016.18
1018.66 1018.87 1019.25 1019.87 1020.07 1020.66 1020.80 1020.67 1021.03 1020.97 1020.81 1020.77 1020.87 1020.94 1021.10 1021.25 1021.13 1021.26 1021.64 1021.78 1021.25 1021.41 1021.39 1019.48 1019.07 1018.52 1017.99 1017.96 1017.40 1016.63 1016.67 1016.88 1016.94 1017.14 1017.40 1017.55 1017.57 1017.09 1017.35 1017.55 1017.56 1017.20 1017.03 1016.75 1016.53 1016.06 1016.03
1018.12 1018.41 1018.86 1019.05 1019.70 1020.00 1020.40 1020.67 1020.59 1020.96 1021.01 1020.74 1020.91 1020.92 1021.30 1021.32 1021.89 1021.79 1021.52 1021.60 1021.52 1021.18 1021.45 1019.27 1018.37 1017.43 1017.52 1017.45 1017.10 1016.34 1016.27 1016.69 1017.14 1017.23 1017.46 1017.40 1017.13 1017.12 1017.19 1017.33 1017.42 1017.15 1016.91 1016.72 1016.54 1016.65 1015.91
1017.14 1018.04 1018.29 1018.58 1019.07 1019.73 1020.04 1020.44 1020.62 1020.80 1020.83 1020.60 1020.82 1021.09 1021.40 1021.19 1021.85 1022.08 1021.78 1021.55 1021.47 1021.27 1020.79 1018.86 1017.84 1017.01 1016.98 1017.33 1016.71 1016.57 1016.32 1016.75 1016.67 1017.30 1017.71 1017.20 1016.98 1017.01 1016.95 1016.81 1016.91 1016.90 1016.85 1016.81 1016.54 1016.38 1016.33
1017.11 1017.41 1017.79 1018.24 1018.71 1019.16 1019.46 1020.07 1020.44 1020.99 1020.59 1020.87 1020.76 1020.80 1021.47 1021.76 1021.87 1022.06 1021.71 1021.31 1021.45 1021.61 1019.84 1018.10 1017.45 1017.23 1017.25 1017.08 1016.72 1016.61 1016.68 1016.68 1017.00 1017.35 1017.49 1017.28 1016.98 1017.03 1016.60 1016.38 1016.49 1016.65 1016.77 1016.95 1017.06 1016.79 1015.88
1016.47 1016.87 1017.47 1017.92 1018.48 1018.89 1019.25 1019.66 1020.19 1020.68 1020.55 1020.82 1020.95 1020.93 1021.39 1021.59 1021.85 1021.81 1021.72 1021.75 1022.04 1020.90 1019.07 1018.47 1017.72 1017.44 1017.25 1017.23 1016.92 1016.91 1017.08 1017.25 1017.44 1017.68 1017.56 1017.08 1016.45 1016.24 1016.49 1016.35 1016.21 1016.50 1017.12 1017.08 1016.94 1016.80 1015.43
1015.89 1016.37 1016.70 1017.39 1018.02 1018.63 1018.96 1019.37 1020.01 1020.45 1020.62 1020.77 1020.88 1021.09 1021.44 1021.67 1021.59 1021.63 1021.80 1022.30 1021.67 1020.07 1019.50 1018.63 1018.00 1017.69 1017.68 1017.46 1017.43 1017.42 1017.55 1017.59 1017.69 1017.86 1017.80 1017.28 1016.64 1016.16 1016.15 1016.01 1015.78 1015.96 1016.47 1016.73 1016.37 1016.28 1016.04
1015.22 1015.69 1016.17 1016.81 1017.42 1018.16 1018.71 1019.24 1019.67 1020.12 1020.52 1020.74 1020.91 1021.44 1021.85 1021.79 1021.39 1021.79 1022.18 1022.30 1020.74 1020.33 1019.62 1019.11 1018.50 1018.30 1018.31 1018.06 1018.08 1017.89 1017.87 1017.67 1017.26 1017.32 1017.51 1017.23 1016.75 1016.15 1015.79 1015.52 1015.66 1015.83 1015.86 1015.86 1016.57 1016.92 1017.37
1014.30 1015.03 1015.75 1016.31 1016.96 1017.66 1018.27 1018.88 1019.31 1019.89 1020.35 1020.61 1021.16 1021.84 1021.78 1021.73 1021.47 1022.10 1022.64 1021.86 1021.37 1020.64 1019.91 1019.42 1019.25 1019.12 1019.13 1018.95 1018.88 1018.50 1018.16 1017.54 1017.20 1016.95 1016.82 1017.28 1016.78 1016.00 1015.46 1015.35 1015.30 1015.26 1015.56 1016.13 1017.25 1017.13 1016.76
1013.43 1014.23 1015.05 1015.73 1016.43 1017.23 1017.97 1018.55 1019.10 1019.70 1020.08 1020.48 1021.23 1022.13 1021.92 1021.53 1021.59 1022.47 1022.34 1021.95 1021.54 1020.84 1020.32 1020.14 1020.09 1020.07 1019.97 1019.76 1019.52 1019.27 1018.50 1017.79 1017.30 1017.33 1017.33 1017.39 1017.31 1016.40 1015.89 1015.45 1015.07 1015.36 1015.64 1016.38 1016.79 1017.44 1017.36
1012.66 1013.53 1014.31 1015.08 1015.70 1016.59 1017.51 1018.17 1018.61 1019.56 1019.92 1020.54 1021.31 1022.25 1022.12 1021.91 1022.39 1022.29 1022.08 1022.03 1021.54 1021.11 1020.68 1020.68 1020.63 1020.58 1020.58 1020.48 1020.14 1019.64 1018.77 1018.01 1017.51 1017.52 1017.72 1017.58 1017.19 1016.46 1015.86 1015.24 1015.14 1015.30 1015.62 1016.15 1016.91 1017.09 1017.53
1011.85 1012.72 1013.61 1014.34 1015.05 1015.87 1016.80 1017.83 1018.40 1019.17 1019.74 1020.49 1021.14 1022.10 1022.14 1022.05 1022.36 1022.27 1022.06 1021.83 1021.63 1021.43 1021.18 1021.30 1021.08 1020.92 1021.11 1021.09 1020.87 1019.64 1018.75 1017.82 1017.66 1017.89 1017.60 1017.75 1017.61 1016.97 1015.97 1015.77 1015.50 1015.66 1015.83 1016.00 1016.55 1017.34 1016.86
1011.03 1012.04 1012.79 1013.64 1014.64 1015.28 1016.21 1017.09 1018.03 1018.67 1019.44 1020.14 1021.16 1022.00 1022.21 1022.02 1021.92 1021.80 1021.98 1021.88 1021.73 1021.28 1021.10 1021.23 1021.23 1021.55 1021.63 1021.25 1020.85 1019.98 1019.16 1018.16 1017.87 1017.92 1017.73 1017.82 1017.27 1017.21 1016.52 1016.06 1016.15 1016.16 1016.19 1016.09 1016.32 1016.91 1016.58
1010.38 1011.43 1012.28 1013.11 1013.96 1014.75 1015.70 1016.64 1017.38 1018.17 1019.00 1019.71 1020.42 1020.93 1020.76 1021.28 1021.77 1021.72 1022.03 1021.63 1021.20 1021.26 1020.94 1020.91 1021.20 1021.19 1021.16 1021.11 1020.66 1019.76 1019.23 1018.80 1018.18 1017.58 1017.81 1017.59 1017.28 1017.14 1016.72 1016.47 1016.34 1016.31 1016.15 1016.26 1016.30 1016.03 1016.32
1009.71 1010.72 1011.63 1012.52 1013.30 1014.21 1015.27 1015.99 1016.91 1017.66 1018.49 1019.49 1019.95 1020.41 1020.69 1020.78 1020.62 1021.32 1021.57 1020.78 1020.65 1020.71 1020.90 1020.74 1020.70 1020.52 1020.59 1020.38 1019.86 1019.44 1019.23 1018.78 1018.08 1017.81 1017.85 1018.13 1017.54 1017.53 1017.22 1016.77 1016.68 1016.49 1016.28 1016.27 1015.83 1015.74 1015.73
1009.05 1010.07 1011.02 1012.01 1012.87 1013.69 1014.80 1015.65 1016.36 1016.93 1017.90 1018.34 1019.18 1019.64 1019.87 1020.20 1020.32 1020.59 1020.18 1019.86 1019.61 1020.04 1019.87 1019.62 1019.70 1020.00 1019.90 1018.80 1019.37 1019.30 1019.27 1019.19 1018.84 1018.74 1018.48 1018.69 1018.39 1017.99 1016.80 1016.71 1016.64 1016.17 1014.97 1014.81 1014.76 1014.82 1014.98
1008.40 1009.35 1010.44 1011.49 1012.53 1013.37 1014.17 1015.18 1015.88 1016.39 1017.25 1018.14 1018.78 1019.35 1019.93 1019.82 1019.63 1019.37 1019.09 1019.17 1019.19 1019.20 1018.99 1018.73 1018.90 1018.94 1017.64 1018.87 1019.18 1019.31 1019.08 1018.63 1018.26 1018.15 1018.09 1017.76 1018.03 1017.87 1016.83 1016.64 1015.72 1014.08 1014.10 1014.15 1014.41 1014.13 1014.44
1008.08 1009.11 1010.12 1011.10 1012.03 1012.90 1013.78 1014.66 1015.31 1016.01 1016.83 1017.89 1018.43 1019.07 1019.50 1019.37 1018.81 1018.48 1018.50 1018.53 1018.52 1018.34 1018.24 1017.82 1017.17 1017.02 1017.94 1018.82 1018.78 1018.56 1018.06 1017.55 1016.24 1016.17 1016.37 1016.74 1017.26 1016.72 1016.41 1015.71 1014.81 1013.87 1013.88 1014.14 1014.06 1013.68 1013.79
1007.59 1008.77 1009.83 1010.80 1011.76 1012.67 1013.45 1014.06 1014.88 1015.56 1016.39 1017.50 1017.99 1018.29 1018.79 1018.99 1018.02 1017.83 1017.94 1018.01 1017.95 1017.86 1017.53 1016.73 1016.41 1016.12 1016.93 1017.62 1017.75 1017.13 1016.72 1016.13 1015.68 1015.29 1015.22 1016.04 1016.20 1016.33 1015.96 1015.23 1014.29 1013.39 1013.38 1013.74 1013.95 1014.02 1014.32
1007.42 1008.49 1009.54 1010.55 1011.35 1012.21 1013.04 1013.75 1014.40 1015.10 1015.92 1017.10 1017.51 1017.93 1018.48 1018.35 1017.86 1017.77 1017.40 1017.30 1017.05 1017.16 1016.91 1016.37 1015.95 1015.80 1016.25 1016.66 1016.56 1016.09 1015.54 1015.18 1014.86 1014.70 1014.98 1015.36 1015.53 1015.27 1015.02 1014.53 1013.86 1013.12 1013.51 1013.49 1014.43 1014.93 1014.91
1007.33 1008.40 1009.29 1010.18 1010.93 1011.74 1012.47 1013.09 1013.83 1014.61 1015.47 1016.50 1017.15 1017.39 1017.99 1017.87 1017.42 1017.42 1017.01 1016.72 1016.51 1016.63 1016.62 1016.34 1016.39 1015.87 1016.03 1016.05 1015.80 1015.23 1014.69 1014.38 1014.19 1013.87 1013.90 1014.07 1014.34 1014.15 1014.45 1014.28 1013.84 1013.25 1013.90 1013.92 1014.20 1014.85 1015.39
1007.25 1008.22 1009.10 1009.89 1010.67 1011.36 1011.99 1012.54 1013.33 1014.11 1014.98 1015.92 1016.89 1017.01 1017.30 1017.83 1017.27 1016.66 1016.22 1015.63 1015.73 1015.57 1015.99 1015.76 1015.77 1015.43 1015.15 1015.11 1015.06 1014.50 1014.28 1014.04 1013.59 1013.36 1013.12 1013.33 1012.96 1013.19 1013.60 1013.31 1013.42 1013.59 1013.72 1014.06 1014.47 1014.93 1015.73
Wind_Speed
4 5 3 3 3 2 2 0 1 3 5 7 8 8 8 7 7 7 6 6 7 8 12 15 16 19 8 6 7 3 1 4 1 2 5 3 5 1 2 1 2 1 2 3 2 6 5
7 3 4 4 4 3 2 1 2 3 5 6 7 7 7 7 7 7 6 6 7 8 9 13 14 15 2 7 1 6 4 3 2 3 3 4 2 1 3 1 1 1 4 7 6 4 4
6 6 3 4 4 4 3 2 3 4 4 5 7 7 6 7 7 7 6 4 7 7 6 10 12 4 1 14 2 5 4 2 2 1 2 1 1 1 2 1 2 1 4 6 3 1 5
6 4 5 7 7 6 5 4 2 2 4 6 7 7 7 7 6 7 5 4 8 7 8 7 9 3 8 3 4 7 2 2 2 1 3 2 3 3 2 1 3 1 2 3 2 1 2
6 6 5 6 5 4 3 3 3 2 3 4 5 7 8 6 6 4 5 5 8 7 7 5 2 2 10 8 2 2 4 4 3 2 3 4 4 3 2 2 2 4 3 2 4 1 2
6 7 10 8 5 3 2 3 3 5 4 1 3 4 7 7 3 3 4 5 4 4 0 2 0 2 6 3 4 4 1 3 2 3 3 4 4 2 2 2 5 1 3 3 5 2 2
9 9 6 7 7 3 4 4 1 5 5 6 2 3 4 3 3 3 4 1 2 1 1 6 3 4 4 8 2 3 1 3 3 4 3 2 2 6 6 5 2 3 3 3 6 5 7
12 13 9 8 8 6 7 7 1 5 5 5 3 0 4 0 3 4 1 3 2 2 6 8 11 10 5 2 6 3 1 4 4 5 4 1 6 8 1 2 5 5 7 9 9 9 7
14 14 15 10 8 8 8 4 3 2 4 3 4 2 2 2 3 3 2 2 1 2 2 7 4 4 5 7 7 8 4 1 2 5 6 6 1 4 5 3 5 6 6 6 11 7 3
17 15 15 15 12 10 8 6 6 4 5 6 5 6 6 3 3 1 1 3 2 2 4 5 3 4 4 4 4 3 7 3 1 5 4 5 4 8 7 9 8 9 9 11 12 6 8
18 17 16 15 15 13 9 7 4 4 6 9 8 7 7 3 3 1 2 4 2 4 3 1 2 1 2 3 3 5 3 4 15 6 3 5 1 0 2 5 7 5 2 6 10 10 7
17 19 18 16 15 13 13 10 6 4 3 4 8 10 8 2 2 2 4 1 3 6 7 2 3 2 2 1 2 2 2 2 2 4 3 7 1 4 6 3 5 1 8 2 2 3 9
19 19 17 15 13 13 13 11 9 5 3 4 5 9 5 2 2 4 2 3 4 4 2 1 2 3 2 2 1 2 3 3 3 2 4 5 13 15 8 12 11 7 8 5 4 4 9
19 20 18 17 15 15 13 12 10 7 5 5 4 6 2 2 2 1 2 4 3 1 2 3 1 2 1 1 0 1 3 3 3 2 1 4 5 2 3 10 6 5 8 7 7 5 6
20 20 19 19 17 16 15 14 11 8 6 8 7 1 2 1 2 3 4 2 5 3 0 2 2 2 1 2 2 0 4 5 6 11 8 4 6 3 6 4 4 3 6 8 11 13 5
23 21 20 20 18 17 18 15 12 10 7 11 4 2 2 4 3 4 3 3 2 2 3 2 1 1 3 2 1 0 3 2 3 10 4 2 7 4 7 2 4 7 2 1 3 4 6
24 23 20 21 19 18 18 17 14 11 9 11 3 3 2 4 4 2 4 4 2 4 2 3 1 2 3 2 3 2 3 3 2 3 5 4 3 4 3 3 4 1 1 2 4 3 4
25 23 22 23 22 20 19 18 16 13 11 8 3 1 2 1 3 2 6 5 1 3 4 1 0 3 3 1 3 5 6 5 4 3 5 6 3 6 9 7 7 6 7 7 5 5 5
25 24 24 24 23 23 22 20 18 16 13 4 5 1 1 2 4 5 2 2 3 1 0 3 3 3 1 4 4 6 7 6 5 2 2 0 3 5 5 0 3 4 4 7 4 2 14
23 25 24 22 22 23 23 22 20 19 17 5 3 4 2 2 1 4 6 4 5 4 8 6 5 4 3 3 4 5 3 3 3 5 7 4 8 14 12 8 2 7 5 6 9 5 4
26 26 22 21 23 23 24 23 21 20 21 4 2 4 4 6 8 7 8 5 9 7 6 7 2 11 11 4 7 14 16 15 15 18 6 7 6 4 8 7 6 5 9 8 11 12 12
24 24 21 21 21 22 25 24 21 19 23 3 5 4 2 1 6 16 16 9 15 9 5 5 14 8 8 13 14 5 5 3 5 2 1 3 8 2 5 7 9 12 14 13 16 15 15
29 26 23 21 22 24 24 23 21 20 13 3 2 2 3 4 6 10 10 12 8 13 9 19 16 13 16 21 16 16 14 17 17 17 17 13 7 5 12 4 3 10 16 18 10 10 10
25 24 24 25 23 22 24 23 21 22 16 3 2 3 2 4 6 11 7 14 17 17 18 11 13 17 13 9 7 10 17 18 14 16 15 11 9 5 5 3 6 4 1 6 13 14 14
25 24 24 24 23 23 23 22 22 23 22 3 3 4 3 6 8 13 16 13 8 11 16 18 20 20 6 4 4 4 5 5 12 19 17 16 8 4 4 7 7 7 5 6 7 4 5
26 25 23 20 20 20 20 21 20 21 23 6 3 3 3 2 7 6 6 10 7 8 13 12 14 11 8 4 5 7 5 5 2 3 13 12 9 6 5 6 6 2 3 4 2 4 0
24 24 22 19 19 20 19 20 21 21 21 9 3 7 2 3 5 5 4 4 2 2 4 5 4 3 12 6 5 5 5 4 5 4 5 7 4 12 10 5 5 4 6 7 1 2 2
23 21 19 17 18 19 19 19 22 22 20 10 2 5 8 3 6 6 6 10 5 4 4 2 3 2 4 5 5 4 4 6 4 4 7 11 7 4 6 4 7 6 4 5 2 1 2
22 22 21 19 18 18 18 19 22 21 18 15 3 3 3 3 4 4 10 12 13 11 7 5 3 3 4 3 3 2 3 3 5 4 4 6 6 4 8 5 2 1 2 2 3 4 4
Wind_Direction
181 168 186 204 247 246 254 190 350 358 352 336 291 271 271 270 266 281 294 309 332 348 346 346 345 338 352 339 264 -0 335 343 11 57 39 46 43 91 87 346 320 335 -0 309 256 302 262
155 176 190 207 188 209 244 320 9 28 350 351 331 310 284 273 266 267 277 308 327 340 347 341 349 332 38 299 36 357 334 338 34 53 46 39 90 108 105 103 40 337 298 282 277 245 242
178 165 211 220 216 191 155 98 41 21 29 352 356 336 308 295 282 268 274 303 302 317 332 335 349 349 202 254 19 342 335 342 332 74 87 74 123 69 147 13 352 27 316 315 258 253 218
176 219 240 204 204 212 194 164 116 51 46 32 24 358 310 290 284 278 264 286 289 311 320 329 342 320 248 237 308 293 216 261 259 123 104 109 84 88 25 347 23 26 93 340 19 19 20
205 199 179 169 178 191 238 213 228 169 36 38 22 10 354 323 254 275 260 257 274 294 305 316 38 344 271 311 252 287 185 198 158 85 46 82 66 70 36 80 346 3 255 205 292 42 141
215 208 195 174 168 188 227 271 322 243 221 307 11 22 354 337 269 218 273 280 308 314 348 109 22 312 276 338 322 343 242 180 117 102 49 48 56 91 95 151 266 241 272 254 265 167 118
195 220 197 184 177 181 247 245 298 306 310 225 180 11 353 350 45 35 1 7 355 319 33 213 196 265 297 315 311 358 348 105 84 76 188 6 171 216 236 196 156 152 192 247 261 253 307
189 186 209 205 223 223 247 222 273 292 297 215 217 175 330 130 72 37 85 137 143 164 306 249 254 267 284 17 324 302 87 177 159 192 132 86 247 236 130 188 209 217 254 260 275 273 222
198 193 184 204 212 212 241 219 269 256 288 236 255 254 78 95 109 60 84 78 340 164 238 289 222 228 234 179 225 253 163 121 172 159 195 212 227 93 185 197 234 242 234 238 257 289 232
196 197 198 195 196 198 213 218 226 283 283 246 194 131 116 139 34 275 109 309 317 106 24 267 238 252 170 169 254 210 201 158 202 234 202 240 257 236 231 257 226 267 227 249 261 248 257
190 199 198 198 189 187 189 184 172 282 294 187 155 110 101 110 148 91 294 298 221 66 342 43 156 85 137 205 291 24 195 136 236 225 189 239 280 105 187 228 176 231 235 266 257 245 272
204 199 200 195 191 185 172 177 171 228 246 214 164 139 125 65 53 271 306 324 55 52 252 63 121 159 141 242 312 122 101 61 160 208 250 255 320 246 241 215 195 89 314 322 56 218 250
203 202 194 190 190 184 182 176 165 198 202 228 180 153 121 120 152 313 325 50 61 154 12 64 185 174 165 197 270 146 133 173 183 139 237 301 263 251 226 262 255 258 274 280 253 212 258
204 199 192 191 185 185 183 172 168 185 203 200 202 142 58 114 243 348 58 61 131 189 265 326 334 65 168 162 319 75 117 189 223 126 130 276 305 222 148 210 240 186 203 219 252 256 306
204 200 198 188 179 183 178 166 169 175 197 202 146 64 27 263 186 51 79 134 208 202 351 319 327 147 279 346 159 74 207 205 217 183 201 207 239 272 222 165 176 151 198 243 253 251 280
199 197 194 186 179 179 173 167 167 171 165 139 106 121 213 185 144 67 88 243 234 238 354 23 230 114 174 278 279 280 231 190 238 201 196 233 278 245 265 201 244 233 187 216 113 237 227
198 196 193 185 175 177 178 168 170 169 159 160 108 151 300 170 70 65 210 210 274 273 41 43 336 305 219 234 214 216 260 287 247 26 192 184 225 240 318 227 195 108 147 35 173 213 281
196 194 192 184 176 178 179 176 167 169 171 132 123 178 308 272 157 203 206 187 174 360 52 278 199 242 224 75 286 231 229 232 89 120 297 235 208 248 247 233 248 243 240 211 229 213 228
192 190 190 188 182 179 176 179 172 170 163 130 142 166 54 317 191 205 266 175 181 177 234 7 294 216 99 211 243 229 245 232 295 313 329 153 253 286 289 237 142 221 205 230 264 173 243
192 192 190 186 187 182 175 176 178 172 178 111 119 154 146 208 207 166 207 231 229 213 227 214 231 351 296 228 232 272 300 309 352 304 251 226 245 246 258 252 178 254 229 240 221 249 274
191 191 187 184 185 182 177 179 179 176 186 127 162 202 187 184 215 213 182 196 204 219 225 192 234 218 228 256 262 250 257 261 276 289 280 199 255 220 256 249 217 249 249 228 237 241 235
190 187 186 183 178 176 177 180 180 185 191 181 148 175 152 208 174 196 210 219 226 222 221 216 234 221 224 236 221 267 271 222 247 37 296 22 283 224 270 257 228 248 245 238 239 246 255
193 185 183 179 180 173 179 188 180 188 159 145 144 85 113 206 164 189 213 221 230 231 237 233 239 250 254 253 261 252 259 269 276 282 282 282 281 277 267 214 233 270 242 226 224 227 238
190 177 180 179 175 178 180 188 186 190 177 116 138 107 188 232 212 212 211 214 226 232 242 244 230 234 244 249 298 279 252 247 248 268 243 239 229 242 288 173 237 246 212 218 222 246 230
187 182 187 183 180 180 183 191 187 194 182 131 133 169 146 242 238 231 230 234 253 257 256 256 253 245 274 224 211 229 234 238 238 233 224 219 209 221 241 248 311 282 187 191 197 283 235
179 176 177 178 180 183 189 197 195 196 186 165 164 158 184 284 244 219 211 221 225 249 273 247 252 248 185 170 179 213 206 225 187 264 197 183 207 213 217 244 244 226 196 164 166 269 141
168 168 170 180 185 186 192 198 199 195 189 174 199 188 171 243 225 218 235 212 161 196 250 284 240 179 160 163 195 187 198 190 187 199 172 189 203 226 231 245 255 228 172 142 222 355 150
158 164 169 193 198 192 197 199 196 195 190 170 178 188 200 214 248 261 238 240 222 204 232 26 306 172 158 187 204 189 175 201 182 197 179 187 198 201 199 235 262 146 129 198 107 87 151
162 173 184 197 195 197 199 199 193 192 188 175 202 172 153 203 271 286 260 249 253 257 247 185 227 245 162 180 220 163 186 180 191 214 194 197 204 185 199 218 70 156 61 111 149 145 179